Location: Unspecified
(38.9820°N, 94.4650°W)
Time: 16:27:56
(UTC-06:00)

Hubble Space Telescope - Visible Passes

Search period start: 26 January 2015 00:00
Search period end: 05 February 2015 00:00
Orbit: 544 x 548 km, 28.5° (Epoch: 26 January)

Date Brightness Start Highest point End Pass type
(mag) Time Alt. Az. Time Alt. Az. Time Alt. Az.
28 Jan 3.1 18:59:08 10° S 19:00:42 12° SSE 19:02:02 11° SE visible
29 Jan 3.1 18:50:27 10° SSW 18:52:35 14° SSE 18:54:35 11° SE visible
30 Jan 3.0 18:41:59 10° SSW 18:44:30 16° S 18:47:03 10° SE visible
30 Jan 3.7 20:22:14 10° SW 20:22:39 12° SW 20:22:39 12° SW visible
31 Jan 3.0 18:33:39 10° SSW 18:36:24 17° S 18:39:10 10° SE visible
31 Jan 3.5 20:14:13 10° SW 20:15:12 14° SW 20:15:12 14° SW visible
01 Feb 2.9 18:25:24 10° SW 18:28:19 18° S 18:31:13 10° SE visible
01 Feb 3.3 20:06:15 10° SW 20:07:46 15° SSW 20:07:46 15° SSW visible
02 Feb 2.9 18:17:14 10° SW 18:20:13 19° S 18:23:13 10° SE visible
02 Feb 3.2 19:58:22 10° SW 20:00:22 15° SSW 20:00:22 15° SSW visible
03 Feb 3.0 18:09:06 10° SW 18:12:07 19° S 18:15:08 10° SE visible
03 Feb 3.2 19:50:35 10° SW 19:52:50 14° SSW 19:53:00 14° S visible
04 Feb 3.3 19:42:59 10° SW 19:44:43 12° SSW 19:45:41 11° S visible
